This demonstration page uses our WeatherBlox Daily Observations layout. Learn more.

Left ArrowRight Arrow

Hourly Observations for February 16, 2017

Temp ( °F °C ) Dew Point ( °F °C ) Humidity (%) Winds ( mph kmh ) Pressure ( in mb ) Visibility ( mi km ) Precip ( " mm )
12:53 am 00:53 Mostly Cloudy 25 -3.9 19 -7.2 78 78 W 5 7 29.94 1014 10 16 N/A
1:53 am 01:53 Cloudy 28 -2.2 21 -6.1 75 75 W 3 6 29.94 1014 10 16 N/A
2:53 am 02:53 Cloudy 29 -1.7 22 -5.6 75 75 WSW 5 7 29.93 1014 10 16 N/A
3:53 am 03:53 Mostly Clear 29 -1.7 21 -6.1 72 72 W 5 7 29.93 1013 10 16 N/A
4:53 am 04:53 Cloudy 29 -1.7 21 -6.1 72 72 W 6 9 29.94 1014 10 16 N/A
5:53 am 05:53 Cloudy 29 -1.7 22 -5.6 75 75 W 6 9 29.96 1015 10 16 N/A
6:53 am 06:53 Cloudy 30 -1.1 21 -6.1 69 69 W 3 6 29.97 1015 10 16 N/A
7:53 am 07:53 Cloudy 31 -0.6 21 -6.1 67 67 WNW 5 7 30.00 1016 10 16 N/A
8:53 am 08:53 Cloudy 32 undefined 22 -5.6 66 66 W 5 7 30.01 1016 10 16 N/A
9:53 am 09:53 Cloudy 33 0.6 21 -6.1 61 61 NNW 8 13 30.02 1017 10 16 N/A
10:53 am 10:53 Cloudy 34 1.1 21 -6.1 59 59 NW 5 7 30.03 1017 10 16 N/A
11:53 am 11:53 Cloudy 35 1.7 20 -6.7 54 54 NW 6 9 30.04 1017 10 16 N/A
12:53 pm 12:53 Cloudy 37 2.8 20 -6.7 50 50 W 5 7 30.01 1016 10 16 N/A
1:53 pm 13:53 Cloudy 37 2.8 20 -6.7 50 50 W 5 7 30.00 1016 10 16 N/A
2:53 pm 14:53 Cloudy 39 3.9 20 -6.7 46 46 VRB 6 9 29.99 1016 10 16 N/A
3:53 pm 15:53 Cloudy 42 5.6 19 -7.2 40 40 VRB 6 9 29.98 1015 10 16 N/A
4:53 pm 16:53 Sunny 42 5.6 18 -7.8 38 38 WSW 6 9 29.95 1014 10 16 N/A
5:53 pm 17:53 Sunny 40 4.4 17 -8.3 40 40 SSE 3 6 29.94 1014 10 16 N/A
6:53 pm 18:53 Clear 34 1.1 18 -7.8 52 52 N N/A 29.92 1013 10 16 N/A
7:53 pm 19:53 Clear 36 2.2 21 -6.1 55 55 ESE 3 6 29.91 1013 10 16 N/A
8:53 pm 20:53 Clear 36 2.2 20 -6.7 52 52 SSE 3 6 29.90 1013 10 16 N/A
9:53 pm 21:53 Clear 36 2.2 24 -4.4 62 62 E 5 7 29.91 1013 10 16 N/A
10:53 pm 22:53 Mostly Cloudy 37 2.8 22 -5.6 54 54 N N/A 29.92 1013 10 16 N/A
11:53 pm 23:53 Mostly Clear 37 2.8 22 -5.6 54 54 ESE 3 6 29.90 1013 10 16 N/A

Powered by AerisWeather